ETH707 EDDF-HAAB

Flight info

Callsign ETH707
Flight time N/A
Altitude 35000
Route CINDY8S CINDY Z74 LAMPU DCT NOMBO Y161 MAH DCT LATLO DCT OBEDI DCT KLAGY DCT TIVNU DCT EDALA DCT PETAK DCT ADDER DCT DIMIS DCT SALUN N705 BOPIX N710 TAKRI P751 TOMRU DCT KSL DCT ALRAP T124 AMUDO AMUDO1A
Aircraft B77W/H-SDE1E2E3FGHIJ2J3J4J5M1RWXY/LB1D1

Departure

Time 2026-04-16 07:52
Airport Frankfurt Main Airport (EDDF)

Arrival

Time N/A
Airport Addis Ababa Bole International Airport (HAAB)
Time Latitude Longitude Altitude Speed Heading
2026-04-16 06:24 50.04805 8.57697 361 ft 0 kts 233°
2026-04-16 07:33 50.04807 8.57700 361 ft 2 kts 233°
2026-04-16 07:33 50.04823 8.57732 369 ft 4 kts 232°
2026-04-16 07:34 50.04838 8.57763 365 ft 4 kts 229°
2026-04-16 07:34 50.04854 8.57781 367 ft 4 kts 158°
2026-04-16 07:34 50.04870 8.57754 367 ft 3 kts 114°
2026-04-16 07:34 50.04878 8.57724 366 ft 4 kts 113°
2026-04-16 07:35 50.04889 8.57685 367 ft 4 kts 113°
2026-04-16 07:35 50.04899 8.57647 367 ft 4 kts 113°
2026-04-16 07:35 50.04909 8.57610 363 ft 2 kts 113°
2026-04-16 07:35 50.04910 8.57607 365 ft 0 kts 113°
2026-04-16 07:38 50.04909 8.57611 364 ft 0 kts 113°
2026-04-16 07:38 50.04909 8.57613 364 ft 1 kts 113°
2026-04-16 07:38 50.04894 8.57665 368 ft 10 kts 113°
2026-04-16 07:39 50.04864 8.57776 367 ft 11 kts 113°
2026-04-16 07:39 50.04823 8.57881 369 ft 11 kts 139°
2026-04-16 07:39 50.04749 8.57918 365 ft 11 kts 189°
2026-04-16 07:39 50.04693 8.57836 369 ft 12 kts 248°
2026-04-16 07:40 50.04664 8.57719 369 ft 12 kts 249°
2026-04-16 07:40 50.04636 8.57603 366 ft 12 kts 249°
2026-04-16 07:40 50.04608 8.57485 366 ft 12 kts 250°
2026-04-16 07:40 50.04581 8.57368 369 ft 12 kts 250°
2026-04-16 07:41 50.04553 8.57251 369 ft 12 kts 250°
2026-04-16 07:41 50.04525 8.57132 368 ft 12 kts 250°
2026-04-16 07:41 50.04497 8.57017 366 ft 12 kts 249°
2026-04-16 07:41 50.04469 8.56900 370 ft 12 kts 249°
2026-04-16 07:42 50.04441 8.56783 368 ft 12 kts 249°
2026-04-16 07:42 50.04413 8.56666 364 ft 12 kts 250°
2026-04-16 07:42 50.04385 8.56549 365 ft 12 kts 250°
2026-04-16 07:42 50.04357 8.56431 367 ft 12 kts 249°
2026-04-16 07:43 50.04328 8.56313 363 ft 12 kts 249°
2026-04-16 07:43 50.04300 8.56194 367 ft 12 kts 249°
2026-04-16 07:43 50.04271 8.56075 362 ft 12 kts 249°
2026-04-16 07:43 50.04243 8.55956 363 ft 12 kts 250°
2026-04-16 07:44 50.04215 8.55837 362 ft 12 kts 250°
2026-04-16 07:44 50.04186 8.55716 362 ft 12 kts 250°
2026-04-16 07:44 50.04158 8.55596 363 ft 12 kts 249°
2026-04-16 07:44 50.04128 8.55474 360 ft 12 kts 249°
2026-04-16 07:45 50.04099 8.55353 361 ft 12 kts 249°
2026-04-16 07:45 50.04069 8.55231 362 ft 12 kts 249°
2026-04-16 07:45 50.04040 8.55110 363 ft 12 kts 249°
2026-04-16 07:45 50.04011 8.54988 363 ft 12 kts 250°
2026-04-16 07:46 50.03983 8.54866 358 ft 12 kts 250°
2026-04-16 07:46 50.03954 8.54744 363 ft 12 kts 250°
2026-04-16 07:46 50.03924 8.54622 358 ft 12 kts 249°
2026-04-16 07:46 50.03895 8.54500 360 ft 12 kts 249°
2026-04-16 07:47 50.03862 8.54378 361 ft 12 kts 240°
2026-04-16 07:47 50.03815 8.54268 360 ft 12 kts 239°
2026-04-16 07:47 50.03781 8.54146 355 ft 13 kts 249°
2026-04-16 07:47 50.03751 8.54017 358 ft 13 kts 250°
2026-04-16 07:48 50.03720 8.53889 356 ft 13 kts 249°
2026-04-16 07:48 50.03689 8.53761 358 ft 13 kts 249°
2026-04-16 07:48 50.03658 8.53633 354 ft 13 kts 249°
2026-04-16 07:48 50.03626 8.53505 350 ft 13 kts 249°
2026-04-16 07:49 50.03594 8.53377 350 ft 13 kts 249°
2026-04-16 07:49 50.03563 8.53248 352 ft 13 kts 250°
2026-04-16 07:49 50.03533 8.53119 352 ft 13 kts 250°
2026-04-16 07:49 50.03502 8.52990 351 ft 13 kts 250°
2026-04-16 07:50 50.03469 8.52863 350 ft 13 kts 246°
2026-04-16 07:50 50.03435 8.52738 337 ft 13 kts 249°
2026-04-16 07:50 50.03404 8.52627 335 ft 9 kts 231°
2026-04-16 07:50 50.03358 8.52596 337 ft 5 kts 185°
2026-04-16 07:51 50.03337 8.52595 338 ft 0 kts 181°
2026-04-16 07:51 50.03277 8.52594 336 ft 25 kts 180°
2026-04-16 07:51 50.02851 8.52598 337 ft 98 kts 179°
2026-04-16 07:52 50.01939 8.52609 336 ft 161 kts 180°
2026-04-16 07:52 50.00687 8.52631 567 ft 189 kts 181°
2026-04-16 07:52 49.99318 8.52627 1091 ft 199 kts 181°
2026-04-16 07:52 49.97932 8.52651 1759 ft 203 kts 179°
2026-04-16 07:53 49.96572 8.53272 2358 ft 212 kts 146°
2026-04-16 07:53 49.95592 8.54979 2971 ft 212 kts 121°
2026-04-16 07:53 49.94888 8.56953 3670 ft 207 kts 118°
2026-04-16 07:53 49.94236 8.58948 4269 ft 206 kts 112°
2026-04-16 07:54 49.94013 8.61107 4803 ft 203 kts 89°
2026-04-16 07:54 49.93975 8.63302 5331 ft 204 kts 93°
2026-04-16 07:54 49.93888 8.65524 5783 ft 210 kts 93°
2026-04-16 07:54 49.93791 8.67854 6160 ft 220 kts 97°
2026-04-16 07:55 49.93255 8.70073 6461 ft 227 kts 135°
2026-04-16 07:55 49.91992 8.71602 6755 ft 235 kts 148°
2026-04-16 07:55 49.90592 8.73076 7099 ft 252 kts 147°
2026-04-16 07:55 49.89103 8.74699 7584 ft 263 kts 145°
2026-04-16 07:56 49.87857 8.76759 8148 ft 265 kts 119°
2026-04-16 07:56 49.87019 8.79265 8832 ft 266 kts 118°
2026-04-16 07:56 49.86134 8.81821 9446 ft 273 kts 118°
2026-04-16 07:56 49.85186 8.84466 10057 ft 280 kts 118°
2026-04-16 07:57 49.84237 8.87093 10618 ft 288 kts 118°
2026-04-16 07:57 49.83240 8.89847 11127 ft 298 kts 118°
2026-04-16 07:57 49.82212 8.92681 11667 ft 307 kts 119°
2026-04-16 07:57 49.81147 8.95610 12194 ft 317 kts 119°
2026-04-16 07:58 49.80035 8.98669 12744 ft 327 kts 120°
2026-04-16 07:58 49.78902 9.01780 13297 ft 337 kts 120°
2026-04-16 07:58 49.77731 9.04988 13864 ft 347 kts 120°
2026-04-16 07:58 49.76549 9.08229 14373 ft 356 kts 119°
2026-04-16 07:59 49.75599 9.11778 14852 ft 362 kts 106°
2026-04-16 07:59 49.74998 9.15611 15364 ft 371 kts 102°
2026-04-16 07:59 49.74264 9.19459 15845 ft 377 kts 116°
2026-04-16 07:59 49.72758 9.22782 16355 ft 382 kts 134°
2026-04-16 08:00 49.70899 9.25751 16918 ft 389 kts 135°
2026-04-16 08:00 49.69020 9.28833 17447 ft 398 kts 134°
2026-04-16 08:00 49.67151 9.32049 18008 ft 406 kts 132°
2026-04-16 08:00 49.65270 9.35362 18551 ft 414 kts 132°
2026-04-16 08:01 49.63334 9.38705 19032 ft 421 kts 135°
2026-04-16 08:01 49.61150 9.41753 19517 ft 426 kts 143°
2026-04-16 08:01 49.58725 9.44428 20011 ft 431 kts 150°
2026-04-16 08:01 49.56126 9.46788 20515 ft 436 kts 152°
2026-04-16 08:02 49.53483 9.49148 21010 ft 442 kts 152°
2026-04-16 08:02 49.48115 9.53981 22062 ft 452 kts 152°
2026-04-16 08:02 49.45391 9.56457 22607 ft 457 kts 152°
2026-04-16 08:03 49.42644 9.58960 23144 ft 461 kts 152°
2026-04-16 08:03 49.39870 9.61485 23693 ft 465 kts 152°
2026-04-16 08:03 49.37082 9.64019 24171 ft 468 kts 152°
2026-04-16 08:03 49.34361 9.66798 24635 ft 472 kts 146°
2026-04-16 08:04 49.31807 9.69996 25091 ft 477 kts 139°
2026-04-16 08:04 49.29446 9.73585 25579 ft 479 kts 136°
2026-04-16 08:04 49.27107 9.77233 26080 ft 480 kts 137°
2026-04-16 08:04 49.24759 9.80875 26580 ft 481 kts 137°
2026-04-16 08:05 49.22396 9.84509 27084 ft 482 kts 137°
2026-04-16 08:05 49.20022 9.88133 27588 ft 482 kts 137°
2026-04-16 08:05 49.17646 9.91744 28107 ft 482 kts 138°
2026-04-16 08:05 49.15260 9.95357 28642 ft 482 kts 138°
2026-04-16 08:06 49.12887 9.98948 29179 ft 481 kts 138°
2026-04-16 08:06 49.10507 10.02547 29719 ft 480 kts 138°
2026-04-16 08:06 49.08936 10.04920 29969 ft 482 kts 138°
2026-04-16 08:06 49.06546 10.08523 30344 ft 484 kts 138°
2026-04-16 08:07 49.04123 10.12084 30718 ft 484 kts 140°